Location: Mount Nemo Observatory
(43.4112°N, 79.8736°W)
Time: 21:04:38
(UTC-05:00)

Envisat - Visible Passes

Search period start: 19 February 2018 00:00
Search period end: 01 March 2018 00:00
Orbit: 764 x 766 km, 98.2° (Epoch: 19 February)

Date Brightness Start Highest point End Pass type
(mag) Time Alt. Az. Time Alt. Az. Time Alt. Az.
19 Feb 4.3 18:31:27 10° ESE 18:35:03 20° ENE 18:38:40 10° NNE visible
19 Feb 3.6 20:08:41 10° S 20:13:39 56° W 20:18:40 10° NNW visible
20 Feb 2.9 19:31:53 10° SSE 19:36:55 68° ENE 19:41:59 10° N visible
20 Feb 5.7 21:13:36 10° SW 21:16:26 15° W 21:19:17 10° NW visible
21 Feb 3.7 18:55:55 10° SE 19:00:23 32° ENE 19:04:53 10° N visible
21 Feb 4.6 20:34:51 10° SSW 20:39:22 32° W 20:43:54 10° NNW visible
22 Feb 4.5 18:21:00 10° E 18:24:03 16° ENE 18:27:08 10° NNE visible
22 Feb 3.2 19:57:26 10° S 20:02:29 71° WSW 20:07:34 10° NNW visible
23 Feb 3.1 19:20:54 10° SSE 19:25:49 54° ENE 19:30:47 10° N visible
23 Feb 5.4 21:01:38 10° SW 21:05:10 19° W 21:08:43 10° NW visible
24 Feb 3.9 18:45:11 10° ESE 18:49:21 26° ENE 18:53:31 10° N visible
24 Feb 4.2 20:23:24 10° SSW 20:28:10 40° W 20:32:57 10° NNW visible
25 Feb 2.9 19:46:17 10° SSE 19:51:21 88° WSW 19:56:28 10° NNW visible
25 Feb 6.0 21:30:18 10° W 21:31:05 10° W 21:31:52 10° WNW visible
26 Feb 3.3 19:09:57 10° SE 19:14:44 43° ENE 19:19:32 10° N visible
26 Feb 5.1 20:49:54 10° SW 20:53:55 24° W 20:57:59 10° NW visible
27 Feb 4.2 18:34:32 10° ESE 18:38:19 22° ENE 18:42:07 10° NNE visible
27 Feb 3.8 20:12:03 10° S 20:16:58 51° W 20:21:56 10° NNW visible
28 Feb 2.9 19:35:10 10° SSE 19:40:14 75° ENE 19:45:19 10° N visible
28 Feb 5.8 21:17:20 10° WSW 21:19:48 13° W 21:22:16 10° WNW visible
